Simultaneous Nadir Overpasses (SNOs) Predictions

Prediction of SNOs between AQUA and GOES-15 Satellite Orbit:

Table of predicted SNOs for the next 14.0 days since TLE Epoch: 12/28/2013
Index Date Time (AQUA) AQUA Lat,Lon GOES-15 Lat,Lon Distance(km) Time Diff (sec)
1 12/28/2013 10:38:35 0.09,-135.71 -0.12,-134.78 105.81 80
2 12/30/2013 10:26:23 -0.52,-132.74 -0.11,-134.68 220.55 80
3 12/30/2013 22:47:47 -0.59,-137.93 0.12,-134.63 375.69 80
4 01/01/2014 22:35:35 0.04,-134.97 0.11,-134.52 50.15 80
5 01/03/2014 22:23:22 0.63,-132.00 0.11,-134.42 275.09 80
6 01/04/2014 10:44:37 0.48,-137.15 -0.12,-134.41 311.54 80
7 01/06/2014 10:32:24 -0.13,-134.18 -0.12,-134.30 13.66 80
8 01/08/2014 10:20:11 -0.76,-131.21 -0.12,-134.19 338.46 80
9 01/08/2014 22:41:34 -0.38,-136.39 0.13,-134.13 257.72 80
10 01/10/2014 22:29:21 0.28,-133.43 0.12,-134.01 66.88 80




NCC Satellite Simultaneous Nadir Overpasses (SNOs) Prediction Service
